Location: Poughquag
(41.6090°N, 73.6820°W)
Time: 21:38:13
(UTC-05:00)

N. Korean satellite - Pass Details

Date: 28 January 2021
Orbit: 451 x 503 km, 97.2° (Epoch: 24 February)

Event Time Altitude Azimuth Distance (km) Brightness Sun altitude
Rises 04:40:59 0° 25° (NNE) 2,489 10.5 -28.0°
Reaches altitude 10° 04:43:20 10° 41° (NE) 1,602 9.6 -27.5°
Maximum altitude 04:46:08 23° 95° (E) 1,013 8.9 -27.0°
Drops below altitude 10° 04:48:53 10° 150° (SSE) 1,580 9.5 -26.5°
Sets 04:51:11 0° 165° (SSE) 2,444 10.3 -26.0°
